Akron, OH

12:46 PM EST on February 26, 2017 (GMT -0500)
Akron Fulton International

Weather History for KAKR - June, 2013

Change the Weather History Date:

Tuesday, June 11, 2013

  Actual Average (KCAK) Record (KCAK)
Temperature  
Mean Temperature 71 °F -  
Max Temperature 79 °F 78 °F 95 °F (1933)
Min Temperature 64 °F 55 °F 32 °F (1972)
Cooling Degree Days 6    
Growing Degree Days 21 (Base 50)    
Moisture  
Dew Point 62 °F    
Average Humidity 81    
Maximum Humidity 94    
Minimum Humidity 56    
Precipitation  
Precipitation 0.04 in - - ()
Sea Level Pressure  
Sea Level Pressure 29.85 in    
Wind  
Wind Speed 8 mph (West)    
Max Wind Speed 16 mph    
Max Gust Speed 22 mph    
Visibility 9 miles    
Events Rain    
Averages and records for this station are not official NWS values.
T = Trace of Precipitation, MM = Missing Value Source: NWS Daily Summary

Daily Weather History Graph

Daily Weather History Graph

Search for Another Location

Airport or City:

Trip Planner

Search our weather history database for the weather conditions in past years. The results will help you decide how hot, cold, wet, or windy it might be!

Date:

Astronomy

Jun. 11, 2013 Rise Set
Actual Time 5:53 AM EDT 8:58 PM EDT
Civil Twilight 5:19 AM EDT 9:31 PM EDT
Nautical Twilight 4:36 AM EDT 10:14 PM EDT
Astronomical Twilight 3:46 AM EDT 11:05 PM EDT
Moon 8:36 AM EDT (6/11) 10:59 PM EDT (6/11)
Length of Visible Light 16h 12m
Length of Day
15h 05m
Waxing Crescent, 8% of the Moon is Illuminated
Jun 11
Waxing Crescent
Jun 16
First Quarter
Jun 23
Full
Jun 30
Last Quarter
Jul 8
New

Hourly Weather History & Observations

Time (EDT) Temp. Dew Point Humidity Pressure Visibility Wind Dir Wind Speed Gust Speed Precip Events Conditions
12:54 AM 64.9 °F 61.0 °F 87% 29.79 in 10.0 mi SSW 4.6 mph - 0.00 in Rain Light Rain
1:54 AM 64.0 °F 61.0 °F 90% 29.78 in 10.0 mi SW 8.1 mph - 0.00 in   Overcast
2:54 AM 64.9 °F 61.0 °F 87% 29.78 in 10.0 mi SW 9.2 mph - N/A   Overcast
3:54 AM 64.0 °F 61.0 °F 90% 29.78 in 10.0 mi WSW 8.1 mph - N/A   Overcast
4:37 AM 64.4 °F 60.8 °F 88% 29.80 in 10.0 mi WSW 8.1 mph - N/A   Overcast
4:46 AM 64.4 °F 60.8 °F 88% 29.80 in 10.0 mi WSW 8.1 mph - N/A   Overcast
4:54 AM 64.0 °F 62.1 °F 93% 29.78 in 10.0 mi WSW 8.1 mph - N/A   Overcast
5:08 AM 64.4 °F 62.6 °F 94% 29.80 in 10.0 mi WSW 6.9 mph - N/A   Overcast
5:50 AM 64.4 °F 62.6 °F 94% 29.81 in 9.0 mi West 8.1 mph - N/A   Overcast
5:54 AM 64.9 °F 62.1 °F 90% 29.79 in 9.0 mi West 8.1 mph - N/A   Overcast
6:54 AM 66.0 °F 63.0 °F 90% 29.81 in 6.0 mi West 8.1 mph - N/A   Overcast
7:54 AM 66.0 °F 64.0 °F 93% 29.83 in 5.0 mi West 9.2 mph - 0.00 in   Overcast
8:10 AM 66.2 °F 64.4 °F 94% 29.86 in 5.0 mi WNW 8.1 mph - N/A   Overcast
8:25 AM 66.2 °F 64.4 °F 94% 29.86 in 4.0 mi WNW 6.9 mph - 0.00 in Rain Light Rain
8:37 AM 66.2 °F 64.4 °F 94% 29.87 in 1.8 mi NW 13.8 mph - 0.04 in Rain Light Rain
8:47 AM 64.4 °F 62.6 °F 94% 29.88 in 2.5 mi NNW 16.1 mph 21.9 mph 0.04 in Rain Light Rain
8:54 AM 64.9 °F 63.0 °F 93% 29.86 in 4.0 mi NNW 8.1 mph 21.9 mph 0.04 in Rain Light Rain
9:14 AM 66.2 °F 62.6 °F 88% 29.88 in 6.0 mi Variable 6.9 mph - 0.00 in   Overcast
9:54 AM 66.0 °F 63.0 °F 90% 29.87 in 8.0 mi NW 10.4 mph - 0.00 in   Overcast
10:54 AM 66.9 °F 62.1 °F 84% 29.87 in 10.0 mi NNW 8.1 mph - N/A   Overcast
11:26 AM 68.0 °F 62.6 °F 83% 29.90 in 10.0 mi NW 12.7 mph - N/A   Overcast
11:54 AM 70.0 °F 61.0 °F 73% 29.88 in 10.0 mi NNW 11.5 mph - N/A   Overcast
12:26 PM 69.8 °F 60.8 °F 73% 29.90 in 10.0 mi WNW 11.5 mph - N/A   Overcast
12:54 PM 72.0 °F 62.1 °F 71% 29.88 in 10.0 mi NW 9.2 mph 16.1 mph N/A   Overcast
1:54 PM 73.9 °F 62.1 °F 66% 29.89 in 10.0 mi WNW 10.4 mph - N/A   Mostly Cloudy
2:54 PM 75.9 °F 61.0 °F 60% 29.89 in 10.0 mi WNW 12.7 mph 20.7 mph N/A   Scattered Clouds
3:54 PM 77.0 °F 61.0 °F 58% 29.88 in 10.0 mi WNW 11.5 mph - N/A   Partly Cloudy
4:54 PM 78.1 °F 61.0 °F 56% 29.87 in 10.0 mi West 9.2 mph 19.6 mph N/A   Partly Cloudy
5:54 PM 78.1 °F 63.0 °F 60% 29.86 in 10.0 mi WNW 9.2 mph - N/A   Partly Cloudy
6:54 PM 78.1 °F 61.0 °F 56% 29.86 in 10.0 mi West 11.5 mph 18.4 mph N/A   Partly Cloudy
7:54 PM 75.9 °F 62.1 °F 62% 29.86 in 10.0 mi WNW 8.1 mph - N/A   Clear
8:54 PM 75.0 °F 62.1 °F 64% 29.86 in 10.0 mi SSW 5.8 mph - N/A   Clear
9:54 PM 71.1 °F 63.0 °F 75% 29.87 in 10.0 mi SSW 5.8 mph - N/A   Scattered Clouds
10:54 PM 71.1 °F 64.0 °F 78% 29.86 in 10.0 mi Calm Calm - N/A   Mostly Cloudy
11:54 PM 70.0 °F 64.0 °F 81% 29.87 in 10.0 mi Calm Calm - N/A   Mostly Cloudy